Location: Lussas
(44.6119°N, 4.4726°E)
Time: 19:02:47
(UTC+00:00)

MOS 1 Rocket - Pass Details

Date: 26 November 2020
Orbit: 613 x 831 km, 97.4° (Epoch: 27 January)

Event Time Altitude Azimuth Distance (km) Brightness Sun altitude
Rises 05:58:19 0° 182° (S) 3,010 6.8 -9.7°
Reaches altitude 10° 06:00:33 10° 188° (S) 2,131 6.0 -9.3°
Maximum altitude 06:05:04 47° 263° (W) 945 3.6 -8.6°
Drops below altitude 10° 06:09:54 10° 337° (NNW) 2,284 5.5 -7.8°
Sets 06:12:22 0° 343° (NNW) 3,248 6.4 -7.4°
